Nome, AK

11:33 AM AKDT on August 30, 2016 (GMT -0800)
Nome

Weather History for PAOM - January, 2013

Change the Weather History Date:

Thursday, January 24, 2013

  Actual Average Record
Temperature  
Mean Temperature 9 °F -  
Max Temperature 17 °F 13 °F 39 °F (1977)
Min Temperature 1 °F -3 °F -45 °F (1989)
Degree Days  
Heating Degree Days 56 60  
Month to date heating degree days 1154 1433  
Since 1 July heating degree days 7281 7251  
Cooling Degree Days 0    
Month to date cooling degree days 0  
Year to date cooling degree days 0  
Moisture  
Dew Point -10 °F    
Average Humidity 0    
Maximum Humidity 0    
Minimum Humidity 0    
Precipitation  
Precipitation 0.00 in 0.03 in 0.68 in (1946)
Month to date precipitation 0.92 0.73  
Year to date precipitation 0.92 0.73  
Snow  
Snow 0.00 in 0.40 in 6.40 in (1946)
Month to date snowfall 11.9 10.0  
Since 1 July snowfall 29.2 41.8  
Snow Depth 22.00 in    
Sea Level Pressure  
Sea Level Pressure 30.01 in    
Wind  
Wind Speed 15 mph (NE)    
Max Wind Speed 32 mph    
Max Gust Speed 43 mph    
Visibility 10 miles    
Events Snow    
T = Trace of Precipitation, MM = Missing Value Source: NWS Daily Summary

Daily Weather History Graph

Daily Weather History Graph

Search for Another Location

Airport or City:

Trip Planner

Search our weather history database for the weather conditions in past years. The results will help you decide how hot, cold, wet, or windy it might be!

Date:

Astronomy

Jan. 24, 2013 Rise Set
Actual Time 11:07 AM AKST 5:21 PM AKST
Civil Twilight 10:05 AM AKST 6:23 PM AKST
Nautical Twilight 9:03 AM AKST 7:25 PM AKST
Astronomical Twilight 8:05 AM AKST 8:23 PM AKST
Moon 3:20 PM AKST (1/24) 9:30 AM AKST (1/24)
Length of Visible Light 8h 18m
Length of Day
6h 13m
Waxing Gibbous, 95% of the Moon is Illuminated
Jan 24
Waxing Gibbous
Jan 26
Full
Feb 3
Last Quarter
Feb 9
New
Feb 17
First Quarter

Hourly Weather History & Observations

Time (AKST) Temp. Windchill Dew Point Humidity Pressure Visibility Wind Dir Wind Speed Gust Speed Precip Events Conditions
12:53 AM 10.0 °F -8.1 °F -2.9 °F 56% 29.79 in 10.0 mi NE 18.4 mph 25.3 mph N/A   Mostly Cloudy
1:53 AM 10.9 °F -7.0 °F -2.9 °F 54% 29.80 in 10.0 mi NE 18.4 mph 28.8 mph N/A   Scattered Clouds
3:53 AM 10.0 °F -10.4 °F -4.0 °F 53% 29.84 in 10.0 mi ENE 24.2 mph 34.5 mph N/A Snow Blowing Snow
4:53 AM 10.0 °F -9.5 °F -5.1 °F 51% 29.86 in 10.0 mi ENE 21.9 mph 29.9 mph N/A   Partly Cloudy
5:53 AM 8.1 °F -11.2 °F -6.0 °F 53% 29.88 in 10.0 mi NE 19.6 mph - N/A   Partly Cloudy
6:53 AM 10.0 °F -6.5 °F -8.0 °F 44% 29.90 in 10.0 mi NE 15.0 mph - N/A   Partly Cloudy
7:53 AM 8.1 °F -11.2 °F -9.0 °F 46% 29.92 in 10.0 mi NE 19.6 mph 25.3 mph N/A   Partly Cloudy
8:53 AM 8.1 °F -9.0 °F -9.0 °F 46% 29.94 in 10.0 mi ENE 15.0 mph - N/A   Partly Cloudy
9:53 AM 6.1 °F -11.6 °F -11.0 °F 45% 29.97 in 10.0 mi NNE 15.0 mph - N/A   Clear
10:53 AM 6.1 °F -11.6 °F -11.9 °F 44% 30.00 in 10.0 mi NNE 15.0 mph - N/A   Clear
11:53 AM 6.1 °F -10.9 °F -11.2 °F 45% 30.01 in 10.0 mi NNE 13.8 mph - N/A   Partly Cloudy
12:53 PM 5.0 °F -12.3 °F - N/A% 30.05 in 10.0 mi NE 13.8 mph - N/A   Clear
1:53 PM 6.1 °F -9.5 °F -11.2 °F 45% 30.06 in 10.0 mi ENE 11.5 mph - N/A   Clear
2:53 PM 7.0 °F -13.1 °F -11.2 °F 43% 30.06 in 10.0 mi NNE 20.7 mph - N/A   Clear
3:53 PM 6.1 °F -10.9 °F -11.2 °F 45% 30.09 in 10.0 mi NE 13.8 mph - N/A   Clear
4:53 PM 5.0 °F -12.3 °F -11.9 °F 46% 30.10 in 10.0 mi NE 13.8 mph - N/A   Partly Cloudy
5:53 PM 1.9 °F -15.5 °F -13.0 °F 50% 30.10 in 10.0 mi NE 12.7 mph - N/A   Partly Cloudy
6:53 PM 3.0 °F -13.3 °F -13.0 °F 47% 30.12 in 10.0 mi NNE 11.5 mph - N/A   Partly Cloudy
7:53 PM 3.9 °F -3.4 °F -14.1 °F 43% 30.12 in 10.0 mi NW 3.5 mph - N/A   Partly Cloudy
8:53 PM 6.1 °F -0.9 °F -16.1 °F 36% 30.15 in 10.0 mi NW 3.5 mph - N/A   Partly Cloudy
9:53 PM 3.9 °F -6.9 °F -16.1 °F 39% 30.16 in 10.0 mi NNE 5.8 mph - N/A   Clear
10:53 PM 3.0 °F -14.1 °F -15.0 °F 43% 30.17 in 10.0 mi North 12.7 mph - N/A   Clear
11:53 PM 5.0 °F -10.8 °F -14.1 °F 41% 30.18 in 10.0 mi North 11.5 mph - N/A   Clear